Torna al catalogo

OPS 9334

DATS

AttivoMilitareMEO
NORAD 2865·PAYLOAD·🇺🇸 United States

Lanciato Jul 1, 1967 da Cape Canaveral Space Force Station

Loading…

Prossimi Passaggi (prossime 24 ore)

TLE

AggiornatoSource: Space-Track

Epoca: Sep 14, 2026, 14:20 UTC

1 02865U 67066D   26257.59763444 -.00000096  00000-0  00000-0 0  9996
2 02865   2.9238  93.1028 0053704 229.9506 358.6406  1.09624447131141

Traccia OPS 9334 in tempo reale con AllMySat

Download on the App Store